Location: Goettingen
(51.5300°N, 9.9433°E)
Time: 07:32:00
(UTC+01:00)

ISS - Pass Details

Date: 13 January 2018
Orbit: 402 x 407 km, 51.6° (Epoch: 21 January)

Event Time Altitude Azimuth Distance (km) Brightness Sun altitude
Exits shadow 07:06:22 10° 247° (WSW) 1,471 -1.4 -11.1°
Reaches altitude 10° 07:06:25 10° 246° (WSW) 1,465 -1.4 -11.1°
Maximum altitude 07:07:46 12° 222° (SW) 1,342 -1.4 -10.9°
Drops below altitude 10° 07:09:08 10° 197° (SSW) 1,462 -0.9 -10.7°
Sets 07:12:13 0° 165° (SSE) 2,317 0.6 -10.2°
